Location: ??
(35.5052°N, 139.7262°E)
Time: 18:12:41
(UTC+00:00)

Cosmos 2263 - Pass Details

Date: 20 June 2021
Orbit: 831 x 865 km, 70.9° (Epoch: 29 July)

Event Time Altitude Azimuth Distance (km) Brightness Sun altitude
Rises 16:02:01 0° 337° (NNW) 3,410 8.0 -28.1°
Reaches altitude 10° 16:04:29 10° 336° (NNW) 2,467 7.1 -28.0°
Enters shadow 16:09:51 76° 287° (WNW) 864 4.1 -27.6°
